Total_Precipitation_Accumulation
0.72 0.79 0.86 0.91 0.96 1.02 1.06 1.06 1.03 0.98 0.95 0.95 0.93 0.89 0.90 0.94 0.99 1.03 1.02 1.15 1.27 1.31 1.15 1.06 1.01 0.97 0.97 0.86 0.86 0.90 0.94 1.07 1.16 1.00 0.95 1.05 1.09 1.03 1.02 0.97 0.88 0.87 0.80
0.63 0.77 0.81 0.90 0.96 0.95 0.97 1.14 1.15 1.11 1.08 1.08 1.06 1.05 0.99 0.94 0.98 0.97 0.91 0.97 1.14 1.32 1.49 1.52 1.34 1.22 1.17 1.06 1.06 1.04 1.02 1.08 1.15 1.19 1.14 1.18 1.18 1.17 1.12 0.95 0.79 0.74 0.76
0.54 0.67 0.78 0.87 0.95 1.00 1.07 1.19 1.30 1.28 1.27 1.29 1.31 1.26 1.21 1.18 1.14 1.09 1.05 1.03 1.07 1.17 1.37 1.55 1.54 1.56 1.38 1.31 1.24 1.16 1.10 1.05 1.11 1.13 1.13 1.26 1.31 1.29 1.12 0.85 0.75 0.76 0.69
0.66 0.78 0.85 1.00 1.12 1.18 1.16 1.24 1.31 1.39 1.44 1.48 1.51 1.44 1.37 1.32 1.30 1.29 1.27 1.25 1.24 1.26 1.28 1.32 1.42 1.58 1.50 1.44 1.35 1.28 1.24 1.22 1.21 1.18 1.20 1.33 1.50 1.52 1.29 0.98 0.83 0.80 0.75
0.94 1.00 1.01 1.09 1.17 1.25 1.36 1.43 1.54 1.61 1.63 1.74 1.70 1.59 1.54 1.52 1.41 1.47 1.58 1.58 1.59 1.44 1.31 1.24 1.21 1.35 1.43 1.43 1.29 1.25 1.31 1.35 1.33 1.30 1.33 1.44 1.56 1.63 1.37 1.10 0.93 0.87 0.82
1.33 1.41 1.47 1.52 1.53 1.58 1.62 1.68 1.79 1.84 1.84 1.79 1.74 1.73 1.70 1.56 1.68 1.69 1.59 1.60 1.72 1.70 1.57 1.47 1.33 1.24 1.25 1.30 1.34 1.37 1.37 1.36 1.39 1.42 1.42 1.48 1.56 1.58 1.62 1.42 1.18 0.96 0.84
1.40 1.40 1.45 1.53 1.60 1.62 1.67 1.72 1.74 1.77 1.76 1.70 1.74 1.78 1.75 1.78 1.73 1.54 1.40 1.38 1.43 1.50 1.54 1.51 1.31 1.19 1.25 1.21 1.36 1.40 1.33 1.26 1.21 1.25 1.30 1.37 1.65 1.81 1.93 1.63 1.37 1.18 0.96
1.33 1.31 1.29 1.32 1.35 1.41 1.53 1.58 1.57 1.57 1.56 1.53 1.54 1.48 1.44 1.43 1.43 1.26 1.21 1.18 1.18 1.15 1.23 1.32 1.27 1.18 1.15 1.15 1.09 1.01 0.97 0.98 0.95 0.91 0.96 1.15 1.42 1.80 1.97 1.94 1.82 1.58 1.37
1.11 1.13 1.10 1.14 1.21 1.30 1.38 1.43 1.48 1.46 1.34 1.24 1.18 1.19 1.19 1.24 1.34 1.18 1.13 1.11 1.14 1.05 1.03 1.05 1.04 0.96 0.96 0.89 0.84 0.75 0.71 0.72 0.72 0.74 0.77 0.92 1.13 1.39 1.72 1.87 1.82 1.61 1.36
1.09 1.15 1.14 1.15 1.23 1.28 1.33 1.34 1.33 1.30 1.25 1.23 1.16 1.12 1.11 1.13 1.23 1.08 1.03 1.03 1.07 1.04 1.02 1.06 1.12 0.96 0.83 0.67 0.65 0.67 0.60 0.57 0.61 0.61 0.62 0.66 0.77 0.96 1.30 1.44 1.42 1.38 1.21
1.03 1.08 1.09 1.11 1.13 1.17 1.22 1.19 1.23 1.24 1.22 1.16 1.09 1.07 1.10 1.09 1.08 0.94 0.85 0.82 0.86 0.87 0.82 0.83 0.94 0.92 0.74 0.59 0.58 0.60 0.55 0.53 0.56 0.55 0.55 0.60 0.71 0.84 0.98 1.21 1.27 1.19 1.07
1.06 1.10 1.08 1.08 1.07 1.03 1.00 0.99 1.02 1.05 1.03 1.02 1.01 1.01 1.06 1.06 0.94 0.82 0.71 0.66 0.69 0.71 0.81 0.82 0.92 0.94 0.75 0.63 0.54 0.51 0.45 0.39 0.43 0.49 0.49 0.50 0.57 0.68 0.85 1.06 1.23 1.21 1.09
1.03 1.08 1.07 1.06 1.06 1.07 1.08 1.07 1.06 1.05 1.04 1.01 0.96 0.89 0.90 0.94 0.94 0.78 0.62 0.54 0.58 0.64 0.85 1.06 1.08 1.02 0.86 0.71 0.64 0.61 0.49 0.41 0.45 0.49 0.50 0.48 0.50 0.61 0.84 1.09 1.28 1.39 1.30
1.07 1.02 0.98 0.98 0.97 1.00 1.08 1.11 1.11 1.10 1.06 1.00 0.94 0.90 0.90 0.92 0.91 0.85 0.75 0.66 0.67 0.72 0.88 1.07 1.17 1.19 1.09 0.95 0.86 0.77 0.60 0.56 0.58 0.59 0.60 0.64 0.68 0.78 0.94 1.04 1.18 1.32 1.36
1.00 0.99 0.97 0.93 0.91 0.94 0.99 1.02 0.98 0.98 0.98 0.93 0.87 0.86 0.86 0.88 0.88 0.84 0.75 0.69 0.66 0.69 0.81 1.04 1.23 1.36 1.38 1.33 1.20 1.07 0.94 0.83 0.75 0.75 0.80 0.80 0.82 0.89 0.96 1.08 1.22 1.26 1.22
1.04 0.97 0.93 0.88 0.85 0.86 0.87 0.92 0.99 0.89 0.90 0.84 0.80 0.74 0.70 0.73 0.73 0.64 0.58 0.56 0.57 0.62 0.74 0.97 1.20 1.39 1.46 1.55 1.53 1.42 1.23 1.07 0.98 0.96 0.93 0.92 0.93 0.91 0.95 1.07 1.22 1.26 1.16
1.01 0.94 0.88 0.85 0.84 0.81 0.79 0.81 0.89 0.89 0.81 0.77 0.81 0.75 0.62 0.62 0.57 0.54 0.52 0.50 0.50 0.53 0.68 0.83 0.95 1.09 1.27 1.46 1.53 1.52 1.35 1.20 1.20 1.17 1.08 1.02 1.03 1.01 0.99 1.06 1.19 1.27 1.25
0.86 0.85 0.79 0.76 0.80 0.79 0.77 0.78 0.82 0.87 0.89 0.83 0.79 0.76 0.58 0.49 0.45 0.44 0.43 0.41 0.39 0.41 0.55 0.66 0.74 0.86 1.04 1.29 1.44 1.49 1.42 1.30 1.28 1.29 1.25 1.19 1.17 1.12 1.05 1.02 1.12 1.21 1.25
0.76 0.71 0.68 0.71 0.75 0.75 0.74 0.72 0.73 0.76 0.81 0.78 0.71 0.71 0.62 0.48 0.42 0.41 0.47 0.50 0.48 0.48 0.57 0.62 0.66 0.76 0.91 1.12 1.33 1.47 1.50 1.42 1.35 1.39 1.38 1.29 1.24 1.20 1.09 1.01 1.05 1.18 1.24
0.67 0.75 0.67 0.64 0.66 0.69 0.72 0.73 0.71 0.76 0.80 0.80 0.75 0.72 0.66 0.55 0.51 0.57 0.67 0.74 0.70 0.67 0.69 0.69 0.73 0.81 0.95 1.17 1.36 1.45 1.48 1.45 1.39 1.42 1.40 1.31 1.25 1.22 1.12 1.07 1.08 1.13 1.15
0.62 0.62 0.63 0.55 0.53 0.58 0.61 0.65 0.66 0.72 0.77 0.78 0.72 0.66 0.60 0.57 0.65 0.74 0.84 0.86 0.79 0.75 0.73 0.71 0.73 0.79 0.96 1.15 1.29 1.41 1.44 1.45 1.43 1.40 1.36 1.29 1.24 1.23 1.20 1.17 1.11 1.12 1.16
0.56 0.52 0.51 0.52 0.54 0.54 0.54 0.58 0.61 0.63 0.65 0.68 0.71 0.68 0.65 0.61 0.72 0.81 0.86 0.90 0.89 0.86 0.81 0.78 0.75 0.81 0.90 1.02 1.17 1.30 1.32 1.33 1.35 1.36 1.32 1.27 1.23 1.22 1.25 1.25 1.22 1.20 1.22
0.50 0.49 0.49 0.53 0.56 0.58 0.58 0.59 0.59 0.60 0.64 0.70 0.73 0.74 0.78 0.82 0.85 0.92 0.97 0.97 0.91 0.87 0.82 0.79 0.79 0.81 0.86 0.91 1.01 1.11 1.17 1.20 1.21 1.24 1.29 1.27 1.23 1.21 1.22 1.23 1.21 1.21 1.19
0.45 0.45 0.44 0.47 0.51 0.55 0.57 0.59 0.59 0.57 0.62 0.69 0.76 0.83 0.88 0.91 0.94 0.97 0.95 0.92 0.86 0.82 0.82 0.81 0.81 0.82 0.85 0.91 0.96 0.95 0.96 0.98 0.99 1.02 1.08 1.12 1.13 1.13 1.16 1.15 1.17 1.20 1.24
0.43 0.48 0.47 0.47 0.46 0.49 0.51 0.52 0.53 0.55 0.62 0.72 0.78 0.82 0.86 0.88 0.91 0.87 0.81 0.76 0.71 0.72 0.74 0.75 0.75 0.70 0.67 0.70 0.72 0.74 0.82 0.81 0.82 0.85 0.87 0.91 0.93 0.98 1.04 1.06 1.12 1.21 1.30
0.36 0.45 0.49 0.49 0.46 0.45 0.48 0.50 0.50 0.53 0.59 0.63 0.68 0.71 0.71 0.74 0.79 0.78 0.74 0.72 0.70 0.67 0.68 0.69 0.66 0.60 0.59 0.59 0.57 0.57 0.55 0.53 0.59 0.68 0.72 0.76 0.83 0.92 0.98 1.01 1.05 1.14 1.22